Theta_e
316 316 317 317 317 318 318 318 317 318 317 317 317 316 316 315 315 318 317 310 311 313 313 314 314 314 315 314 315 315 315 314 315 315 315 314 315 314 314 314 313 312 311 310 309 309 309 308 308 308 308 307 307 306 306 305 305 305 304 303 301 301 300 299 298 298 297 297 297 297 298 297 297 297 296 296 296 296 296 296 296 296 296 296 296 296
315 316 317 317 318 318 318 318 318 317 317 316 316 315 315 316 316 319 316 309 309 311 313 314 314 314 314 314 314 314 314 314 315 315 315 315 315 315 315 315 314 312 311 310 309 308 307 307 308 307 307 307 307 306 306 305 304 304 303 302 301 300 299 299 298 297 297 297 297 297 297 297 296 296 296 296 296 296 296 296 296 296 296 296 296 295
315 316 316 317 317 317 316 316 316 316 316 316 316 315 316 317 318 318 314 309 309 310 313 314 313 314 314 314 314 314 314 314 315 315 315 315 315 315 316 315 315 313 311 310 309 307 307 307 307 307 307 307 306 306 305 305 304 303 302 301 300 299 299 298 298 297 297 297 297 297 297 297 296 296 296 296 296 296 296 296 296 296 296 296 295 295
316 316 316 317 317 316 316 314 314 314 315 315 316 316 316 317 318 317 313 309 309 310 312 313 312 313 313 313 313 314 315 315 315 315 315 315 315 316 316 316 315 312 311 310 308 307 307 307 307 307 307 306 306 305 304 304 303 302 302 301 300 299 298 298 297 297 296 296 296 296 297 296 296 296 296 295 295 295 295 295 295 295 295 295 294 294
317 316 314 315 315 316 316 315 314 314 315 316 317 316 317 317 318 318 315 312 312 312 310 311 313 314 315 316 315 315 315 315 315 314 314 314 314 314 314 315 315 313 312 311 309 308 307 308 308 308 307 307 306 306 305 304 303 303 301 300 300 299 298 298 297 297 296 296 296 296 296 295 295 295 295 295 295 295 295 295 295 295 295 294 294 293
316 315 314 314 315 315 316 315 315 316 315 316 317 318 317 317 317 318 317 314 315 315 312 312 314 315 315 316 317 316 315 314 314 314 314 313 313 313 314 315 314 312 312 311 309 309 309 310 309 309 308 308 307 307 306 305 304 302 301 300 299 298 298 297 297 297 296 296 296 296 295 295 295 295 295 295 295 294 294 294 295 294 294 293 293 292
316 313 312 315 316 316 316 315 315 316 315 315 318 318 317 317 317 317 317 315 315 315 313 312 314 315 315 315 316 316 315 314 315 316 316 315 313 313 314 315 314 312 311 311 310 309 310 310 310 310 310 309 309 308 306 305 304 302 301 300 299 298 298 297 297 297 296 296 295 295 295 295 295 294 294 294 294 294 294 294 294 294 293 293 292 292
316 313 312 315 315 316 316 315 316 316 315 316 316 316 315 315 316 317 316 315 314 315 314 313 314 315 315 315 316 315 315 314 315 315 316 316 315 315 314 316 314 313 312 311 310 310 311 312 311 311 311 310 309 308 307 306 304 303 301 300 299 298 298 297 297 296 296 295 295 295 295 294 294 294 294 294 294 294 294 294 294 293 293 292 292 291
317 315 315 314 314 315 316 316 317 317 316 315 312 312 313 314 315 315 315 314 314 314 315 314 314 315 316 316 316 315 314 314 314 314 314 315 316 316 316 316 315 313 312 311 310 311 312 313 312 312 310 309 308 307 307 306 305 303 302 300 299 298 297 297 297 296 296 295 295 295 295 294 294 294 293 294 294 293 293 293 293 292 292 292 291 291
315 311 312 314 315 316 314 312 314 317 316 312 310 311 312 312 312 313 313 313 313 314 315 316 315 315 316 315 315 315 314 313 314 314 315 315 316 317 317 317 315 313 312 311 311 312 312 313 312 311 309 308 308 308 307 306 305 303 302 301 300 298 298 297 296 296 295 295 295 295 295 294 294 293 293 293 293 293 293 293 292 292 291 291 291 290
310 306 308 312 314 313 310 307 308 312 312 310 311 313 312 312 311 311 312 312 313 316 317 316 315 315 316 316 315 315 314 314 315 315 315 316 316 318 318 316 314 312 312 312 312 312 312 312 311 310 309 308 309 309 308 306 305 303 302 301 300 299 297 297 296 295 295 295 294 294 294 294 293 293 293 293 293 293 292 292 292 291 290 290 290 290
312 309 310 311 311 310 309 308 307 307 308 311 313 313 314 314 312 312 312 312 314 317 317 316 317 316 315 315 314 315 315 315 316 315 315 316 316 317 317 315 313 313 313 313 313 313 312 312 311 310 309 310 311 311 309 308 306 304 303 302 300 299 298 297 296 295 295 294 294 294 294 294 293 293 293 293 292 292 292 292 291 291 291 290 290 290
316 314 313 312 309 309 312 312 308 306 308 311 312 312 315 315 315 316 315 314 316 317 315 314 317 317 315 314 314 315 315 314 315 315 315 316 316 316 317 316 313 313 313 313 313 313 313 313 312 311 311 311 312 312 311 309 307 305 304 302 301 300 298 297 296 295 295 294 294 294 294 294 293 292 292 292 292 292 292 292 291 291 291 290 290 290
318 316 314 313 311 309 312 313 312 310 308 310 312 313 315 316 317 319 318 317 318 317 313 311 314 315 313 313 314 314 314 315 315 315 315 315 315 316 317 317 314 312 313 313 313 313 313 313 313 312 312 312 313 313 311 310 308 307 305 303 302 300 298 297 297 296 295 294 294 294 294 293 293 292 292 292 292 292 291 291 291 291 291 290 290 290
318 317 315 315 314 311 311 313 316 315 310 310 313 314 315 316 317 317 317 317 317 316 313 310 312 313 311 312 315 315 315 315 315 315 315 315 315 315 316 315 314 312 313 313 312 312 312 313 313 312 312 313 313 313 312 310 309 308 307 305 304 301 299 298 297 296 295 294 294 293 293 293 293 292 292 292 291 291 291 291 291 291 290 290 290 290
316 318 318 315 312 311 312 314 315 315 313 311 312 314 315 316 316 316 316 315 314 314 314 312 311 312 312 314 315 315 315 315 315 315 315 315 315 314 313 312 312 312 312 312 312 311 312 312 312 313 312 312 313 312 312 311 310 310 309 307 305 302 300 299 297 296 295 294 294 293 293 293 292 292 292 291 291 291 291 291 290 290 290 290 289 289
315 317 317 311 309 309 307 310 313 314 314 313 312 314 314 315 316 316 317 315 312 313 315 314 313 313 313 314 315 314 314 314 314 314 314 315 314 313 312 311 311 312 312 312 312 311 311 311 311 312 312 312 312 312 312 312 311 311 309 308 306 303 301 299 298 297 295 294 294 293 293 293 292 292 292 291 291 291 290 290 290 290 290 289 289 289
316 316 315 311 311 307 302 306 310 310 311 312 312 314 313 313 313 314 316 315 314 315 316 315 315 314 313 314 314 313 313 313 313 313 314 314 314 314 313 312 311 311 312 311 311 311 311 311 311 311 312 312 312 312 312 312 311 310 309 307 306 304 302 301 299 297 296 295 294 293 293 292 292 292 291 291 290 290 290 290 290 290 289 289 289 289
317 316 316 310 309 307 303 306 310 308 308 309 310 311 311 313 313 313 314 315 314 316 315 314 314 313 314 314 313 312 312 313 313 313 313 313 314 314 313 312 312 311 311 311 311 311 311 311 311 311 311 312 312 312 312 311 310 309 308 307 305 303 302 301 299 298 296 295 294 293 293 292 292 292 291 290 290 290 290 290 290 289 289 289 289 288
316 316 316 308 305 307 306 307 311 310 308 306 307 309 310 311 313 313 314 314 314 314 314 314 315 314 315 316 314 313 313 313 313 313 313 313 313 313 312 312 312 311 311 311 311 311 311 312 312 311 311 311 312 312 311 311 311 309 308 307 305 303 301 300 299 298 297 295 294 293 292 292 291 291 291 290 290 290 290 290 290 289 289 288 288 288
315 315 315 308 304 308 309 309 311 313 311 308 307 309 309 310 310 311 313 313 313 314 313 314 315 314 314 315 315 314 313 314 314 313 314 314 313 313 312 312 312 312 311 311 311 310 310 311 312 311 311 311 311 311 311 311 311 310 308 307 305 303 302 301 299 298 296 295 294 293 292 291 291 291 290 290 289 289 290 290 289 289 288 288 288 288
315 315 315 312 308 310 311 312 313 313 313 311 310 310 311 311 311 312 313 314 312 313 314 314 314 314 314 314 314 313 313 314 313 313 315 315 313 312 312 312 311 312 311 311 311 310 310 311 311 311 311 311 311 311 311 311 311 310 309 307 305 303 302 302 300 298 297 295 294 292 292 291 291 291 290 289 289 289 289 289 289 288 288 288 288 288
315 316 315 314 314 314 313 311 310 311 311 312 312 312 312 312 312 313 315 314 312 312 313 314 315 315 314 314 314 313 313 312 313 313 313 314 313 311 311 311 311 311 311 311 311 311 311 311 311 311 311 311 311 311 311 311 310 310 309 308 306 304 303 302 300 298 297 295 293 292 291 291 291 290 290 289 289 289 289 289 288 288 288 288 288 288
314 315 314 314 314 315 313 308 305 306 308 310 311 312 313 313 313 314 313 313 313 313 313 313 314 315 315 315 315 313 313 312 312 312 312 312 312 311 311 311 311 311 311 311 311 311 311 311 311 311 311 311 311 311 311 311 310 310 309 308 306 305 303 302 300 298 296 295 293 292 291 290 290 290 289 289 289 289 289 288 288 288 288 288 288 288
312 313 314 313 313 314 313 310 307 306 307 309 310 311 312 313 313 314 312 310 312 314 314 314 314 314 315 316 315 313 313 312 311 311 311 311 311 310 310 310 310 310 310 310 311 311 311 311 311 311 311 311 311 311 311 310 310 309 309 308 307 305 303 302 300 298 296 294 292 291 290 290 290 290 289 289 289 289 289 288 288 288 288 288 288 288
313 314 313 313 313 314 313 313 312 310 307 307 309 310 312 313 313 313 312 311 313 314 313 313 314 313 313 314 314 313 313 312 312 312 311 309 310 310 309 309 310 310 310 310 310 310 310 311 310 311 311 311 310 311 310 310 310 309 308 307 306 304 303 302 300 298 296 294 292 291 290 290 290 289 289 289 289 289 288 288 288 288 288 288 288 288
315 316 312 312 312 313 312 313 313 312 310 308 309 310 311 312 313 312 312 312 313 313 313 313 313 313 313 313 312 313 313 313 313 313 312 308 308 309 309 309 309 309 310 310 310 310 310 310 310 311 310 310 310 310 310 309 309 308 307 306 305 304 302 301 300 298 296 294 292 291 290 290 290 289 289 289 289 289 288 288 288 288 288 288 288 288
313 313 311 312 312 311 311 311 312 312 311 311 311 310 310 311 313 313 313 312 312 313 313 313 313 314 313 312 312 313 312 313 312 313 313 310 308 308 308 309 309 309 309 309 309 309 309 310 310 310 310 309 309 309 309 309 308 307 306 305 304 303 302 301 299 297 295 293 292 290 290 289 289 289 289 289 289 288 288 288 288 288 288 288 288 288
311 310 311 312 312 311 311 311 311 312 312 311 312 312 311 311 312 313 312 312 312 313 312 312 313 314 313 312 312 312 312 313 313 312 313 312 310 309 308 308 308 308 308 308 308 309 309 309 310 310 309 309 308 308 308 308 307 306 305 304 303 302 302 300 298 296 294 293 291 290 289 289 289 288 288 289 288 288 288 288 288 288 288 288 288 288
310 310 311 312 311 311 312 311 311 311 311 311 311 312 312 311 311 311 311 311 312 312 312 312 313 313 312 312 312 312 312 313 312 312 312 312 311 311 309 307 307 307 308 308 308 308 308 309 309 309 308 308 308 307 307 307 306 306 304 303 302 301 300 299 297 295 294 292 291 290 289 289 289 288 288 288 288 288 288 288 288 288 288 288 288 287
309 310 311 311 311 311 311 311 311 311 311 311 311 312 312 312 311 311 311 311 312 312 312 312 312 312 311 311 311 312 312 312 311 311 311 311 311 311 310 309 308 308 308 308 308 308 308 308 308 308 307 307 307 307 306 306 306 304 303 302 302 301 300 298 296 295 293 291 290 289 289 289 288 288 288 288 287 287 288 288 288 288 288 288 288 287
309 309 310 310 311 312 311 311 311 311 311 311 311 312 311 311 311 311 311 311 311 311 311 312 312 311 311 311 311 311 311 311 311 311 310 310 310 310 310 309 309 309 309 309 308 308 308 307 307 307 307 307 307 306 306 305 305 304 303 302 301 300 299 297 296 294 292 290 289 289 288 288 288 288 288 288 287 287 288 288 288 288 288 288 287 287
308 309 309 310 311 312 311 311 311 311 312 312 312 311 311 311 311 311 311 312 311 312 312 312 312 311 311 311 311 311 311 310 311 311 310 310 310 310 310 309 309 309 309 309 309 309 308 308 307 307 307 307 307 307 306 306 305 304 303 302 300 299 298 296 295 293 291 290 289 288 288 288 288 288 288 287 287 287 288 288 288 288 288 287 287 286
308 309 309 311 312 312 312 312 312 312 313 313 313 312 311 311 311 311 311 311 311 311 311 311 311 311 312 312 311 311 311 311 311 311 311 310 310 310 310 310 309 309 309 309 309 309 309 308 308 308 307 307 307 307 306 305 304 303 301 300 299 298 297 296 294 292 291 289 289 288 288 288 288 288 288 287 287 287 288 288 288 288 288 287 286 286
309 309 309 311 312 312 312 313 313 314 314 313 313 312 310 310 310 311 311 311 310 311 311 311 312 311 312 312 312 312 312 311 312 311 310 311 310 310 310 310 309 309 309 309 309 309 309 309 308 308 308 308 307 306 305 304 303 302 301 300 299 298 297 296 294 292 290 289 289 288 288 288 288 288 287 287 287 287 288 288 288 288 287 286 286 285
310 310 309 310 311 312 313 313 314 315 313 311 311 311 310 311 310 311 312 311 310 311 311 311 311 311 312 312 312 312 312 311 311 311 311 311 310 310 310 309 310 309 309 309 309 309 309 309 308 308 308 307 307 306 305 304 303 302 301 300 299 298 297 295 294 292 290 289 288 288 288 288 288 287 287 287 287 287 288 288 288 287 287 286 285 285
310 310 310 311 312 313 313 312 314 314 312 311 311 311 311 311 311 311 312 312 311 311 311 311 311 311 311 311 311 311 311 311 311 311 311 311 311 310 310 310 310 310 309 310 310 309 309 309 308 308 308 308 307 306 306 305 303 302 301 299 298 296 295 294 293 292 290 289 288 288 288 288 287 287 287 287 287 287 288 288 287 287 286 285 285 284
310 310 311 312 313 313 314 313 314 314 313 313 313 312 311 311 311 312 313 313 312 311 311 311 311 311 311 312 311 311 311 311 311 311 310 311 311 310 310 310 310 310 310 310 310 309 309 309 309 309 309 309 308 308 307 306 304 302 301 299 298 296 295 293 292 291 290 289 288 288 288 287 287 287 287 287 287 287 288 287 287 286 285 284 284 284
310 310 310 311 312 313 314 314 315 314 314 314 313 312 312 312 312 312 313 314 313 312 311 311 311 311 312 312 311 311 312 311 311 311 310 311 311 310 310 310 310 310 310 310 310 309 309 309 309 309 309 309 309 309 308 307 305 303 302 300 299 297 295 294 292 291 290 289 288 287 287 287 286 286 287 287 287 287 287 287 286 285 284 284 283 283
310 309 310 311 312 312 313 314 314 314 314 314 313 312 312 312 312 313 314 314 313 311 312 311 312 312 311 311 311 311 312 311 311 311 311 311 311 310 310 310 310 310 310 310 310 309 309 310 309 310 310 310 310 310 309 307 305 304 303 302 300 298 297 295 293 291 289 288 287 287 287 286 286 287 287 287 287 287 287 286 285 284 283 283 283 283
311 310 310 311 311 311 312 313 314 313 314 314 312 312 312 312 312 314 314 314 312 312 312 311 311 311 311 311 311 311 311 311 311 311 311 311 310 310 310 310 309 309 309 309 309 309 309 310 310 310 311 311 310 310 309 307 305 304 304 303 301 300 299 295 292 290 288 287 287 286 286 286 286 287 287 287 287 287 286 285 284 283 283 283 282 282
311 310 310 311 311 311 311 312 312 312 313 312 312 312 312 313 313 313 313 312 311 312 311 311 311 311 311 311 310 310 311 310 311 310 310 310 310 310 310 310 309 309 308 309 309 309 309 310 310 311 311 310 310 309 308 306 306 305 305 303 303 301 298 294 292 290 288 287 287 286 286 286 286 287 287 287 287 286 285 284 284 283 283 282 282 282
312 311 311 311 311 311 311 311 312 313 314 312 312 312 312 313 313 313 311 311 312 311 311 311 311 310 311 311 310 310 310 310 310 310 310 310 310 310 310 309 309 309 308 308 309 308 308 309 309 310 310 310 310 309 308 306 305 305 304 304 303 300 296 294 292 290 288 287 286 286 286 286 287 287 287 287 286 285 284 284 283 283 282 282 282 281
313 313 312 311 311 311 312 312 312 312 312 311 311 311 312 312 312 312 312 312 311 311 311 311 311 311 311 311 310 310 310 310 310 310 310 309 309 309 309 309 308 309 309 309 309 308 307 308 308 309 309 309 309 308 308 307 305 304 303 302 300 298 295 293 291 289 288 287 286 286 286 286 287 287 287 286 285 284 284 283 283 282 282 281 281 280
311 309 308 308 309 310 311 310 310 310 310 310 310 311 311 310 309 310 310 310 311 311 310 310 309 309 309 308 308 308 309 309 309 309 309 309 308 308 308 308 308 308 308 308 308 307 306 306 307 307 307 308 308 308 307 306 304 303 302 301 299 297 295 293 290 288 287 286 286 286 286 287 287 287 286 286 285 284 283 283 282 282 281 281 280 279
305 303 304 305 306 308 309 309 309 308 308 308 308 308 307 307 307 307 308 308 308 308 308 307 307 307 306 306 305 305 306 307 306 307 307 307 307 307 307 307 307 307 307 307 307 307 306 305 305 305 306 306 306 306 306 304 302 301 301 300 298 297 295 292 290 288 286 286 286 286 286 287 287 286 286 285 284 283 283 282 282 281 280 280 279 278
302 302 302 303 304 306 308 308 307 306 305 305 305 305 305 306 307 307 308 307 307 307 307 307 307 307 307 307 306 306 306 306 306 306 306 306 307 307 307 307 307 306 306 307 307 307 306 304 304 304 304 305 306 305 305 303 300 298 297 297 296 295 294 292 290 288 286 285 286 286 286 287 286 286 286 284 283 282 282 281 281 280 280 279 278 277
301 300 298 298 300 301 302 302 301 301 301 301 302 304 306 307 307 307 306 306 305 305 305 305 305 306 306 307 306 306 306 306 306 307 307 307 307 307 307 307 306 306 306 306 306 305 304 303 303 304 304 304 305 305 304 302 299 296 294 293 294 294 292 290 288 287 286 285 286 286 286 286 286 286 285 284 283 282 281 281 280 279 279 278 277 277
296 296 295 295 296 296 296 297 297 298 299 300 301 303 305 304 303 302 301 301 301 301 302 302 303 304 305 305 306 306 306 306 306 307 307 307 307 307 307 307 306 305 305 305 305 305 304 304 304 303 304 304 304 303 302 300 298 296 294 292 291 292 291 289 287 286 285 285 286 286 286 286 285 285 284 283 282 281 280 280 279 278 278 277 277 276
294 294 294 294 294 295 296 296 297 298 299 300 300 300 300 299 298 297 297 297 298 298 299 299 300 300 301 301 302 303 304 305 305 306 306 306 306 307 306 306 306 305 305 305 305 304 304 304 303 303 302 302 302 301 300 298 296 295 293 291 290 290 290 288 286 285 285 286 286 286 286 285 285 284 283 282 281 280 279 278 278 277 277 277 276 276
294 294 294 295 295 295 296 296 296 297 296 297 296 296 295 295 294 295 295 295 295 295 296 296 297 297 297 298 299 301 303 304 305 306 306 306 306 306 306 306 306 306 306 305 305 304 304 304 303 302 301 301 300 299 298 296 295 295 293 291 289 289 288 287 286 285 285 286 286 286 286 286 285 284 283 281 280 280 279 278 278 277 277 276 276 275
Wind_Speed
6 5 7 10 12 12 12 14 16 16 14 12 11 10 13 13 13 16 7 5 5 5 10 15 16 19 20 17 18 22 24 22 23 24 27 29 26 23 24 26 26 28 31 30 30 31 30 32 33 35 37 38 40 41 42 43 44 45 44 43 41 39 38 39 39 37 35 34 33 33 31 29 28 26 24 23 22 22 20 18 16 15 14 13 13 14
5 6 11 17 16 13 9 8 11 14 14 12 11 11 12 11 13 14 4 5 5 4 9 13 16 19 18 16 17 21 21 20 22 25 27 27 25 24 24 24 22 21 24 25 26 28 28 30 31 33 36 38 39 40 41 43 44 45 45 44 42 41 40 40 40 38 36 35 34 33 31 30 29 27 25 25 24 23 21 18 17 16 15 15 15 15
6 10 18 20 11 5 4 4 8 12 13 12 9 8 10 10 12 10 2 6 5 4 7 11 13 17 18 18 19 20 20 21 27 29 28 26 24 24 24 20 17 18 20 22 23 25 26 27 28 30 33 35 37 39 41 43 44 45 45 45 43 42 42 41 40 38 37 36 36 34 32 31 29 28 27 26 25 23 21 20 19 17 16 16 16 16
8 10 14 12 5 5 8 6 7 10 9 9 8 7 10 9 8 7 2 3 5 6 8 11 12 14 16 17 19 24 26 25 27 26 26 27 24 26 26 17 13 17 17 20 21 23 24 24 24 26 29 32 35 38 41 43 45 46 46 46 45 44 43 42 40 39 39 38 37 35 33 31 30 29 27 26 25 23 22 21 20 18 17 17 17 17
13 8 2 2 4 7 10 7 8 8 7 9 10 10 11 11 11 10 3 3 7 8 4 8 11 11 12 13 14 15 17 17 18 17 20 28 30 32 31 18 14 16 16 18 20 21 21 19 19 21 24 28 32 36 40 42 44 45 46 46 46 45 44 42 41 41 41 40 37 35 33 32 30 29 28 26 25 25 24 22 20 18 18 18 18 17
16 7 5 4 5 6 8 9 9 8 7 9 11 14 16 14 14 13 6 6 8 7 2 3 10 8 6 9 9 5 6 7 9 10 14 23 28 30 29 19 17 18 17 18 20 20 19 17 17 19 22 25 28 32 36 39 42 44 46 46 46 46 44 43 43 42 42 40 37 36 35 33 32 31 29 28 26 26 24 22 21 19 19 19 18 17
8 3 4 7 8 6 8 11 11 9 8 8 5 7 12 13 14 13 8 4 6 7 1 2 8 9 4 6 8 5 6 7 7 8 12 17 21 24 27 22 17 17 16 18 21 20 17 16 17 18 19 21 23 26 30 34 39 42 45 46 46 46 45 44 44 43 42 40 38 37 36 35 33 32 30 28 27 26 25 23 22 21 20 19 18 18
5 6 3 6 8 7 9 10 10 11 9 5 1 3 3 6 10 9 7 6 6 9 5 4 5 12 9 6 10 10 8 8 8 11 14 16 18 21 25 25 19 17 17 19 22 20 17 16 16 16 16 17 18 21 26 30 35 40 43 45 46 46 45 45 44 44 43 41 40 39 37 36 34 33 31 30 29 27 26 24 23 22 21 19 18 18
3 6 6 8 8 7 8 3 3 11 9 2 3 3 2 0 3 3 4 6 7 9 7 7 7 9 11 5 12 14 12 10 12 15 15 16 19 18 18 20 18 16 17 18 19 18 16 15 14 14 15 16 16 19 23 26 31 36 40 42 45 46 46 46 45 45 44 42 41 40 38 37 36 34 32 31 30 28 26 25 24 22 21 20 19 19
3 1 3 7 8 7 4 4 3 6 6 2 5 4 5 3 1 1 4 5 6 9 10 8 10 7 12 3 10 11 10 11 12 13 14 15 19 17 16 18 16 14 15 16 16 17 16 15 13 14 15 15 15 16 20 24 28 32 36 40 43 44 46 46 46 45 44 43 42 41 40 38 36 35 33 32 31 29 27 26 24 23 21 20 19 19
2 4 1 4 6 2 5 5 5 2 2 6 5 3 3 2 2 2 4 2 5 11 10 12 17 12 10 2 9 8 10 13 11 10 11 12 14 14 14 17 17 15 16 17 18 18 17 16 15 16 16 14 13 15 19 22 26 30 34 38 41 43 45 46 46 46 45 45 44 43 41 39 37 36 34 33 32 30 28 26 25 24 22 21 20 20
6 5 2 3 4 4 6 4 3 4 2 4 3 2 2 4 2 3 4 3 6 10 5 12 19 17 11 3 7 8 11 15 11 7 9 9 9 11 12 15 16 16 19 20 20 20 19 18 18 18 16 14 13 16 19 21 24 28 32 36 39 42 45 46 47 47 47 47 46 44 42 40 38 37 36 34 33 31 29 28 26 24 22 21 20 20
6 8 7 4 3 7 6 3 3 2 3 4 5 5 4 4 3 4 5 4 8 8 3 8 11 13 13 9 7 8 9 13 11 6 9 9 9 11 12 14 16 18 22 23 22 22 21 19 18 17 16 15 15 17 18 21 23 26 30 34 38 41 44 46 47 48 48 48 48 46 43 41 39 38 37 35 34 32 30 29 27 25 23 22 21 21
3 3 8 7 2 10 12 7 5 4 7 9 8 7 6 5 5 6 6 6 9 7 3 6 4 6 8 7 14 17 13 14 12 10 13 14 13 13 11 14 17 20 24 24 23 23 22 20 18 17 17 16 17 18 20 21 22 25 28 32 37 40 43 46 47 49 49 50 49 47 44 42 41 40 39 37 35 33 31 29 28 25 24 23 22 22
6 5 9 10 4 13 17 12 6 3 7 11 8 7 8 6 6 7 7 8 7 6 1 4 2 5 3 1 10 17 17 17 14 15 18 19 20 16 12 14 16 21 26 27 25 23 22 21 19 19 18 18 19 21 22 23 23 25 27 30 34 38 42 46 48 49 50 51 50 48 46 44 42 41 40 38 35 33 31 29 28 26 25 24 23 22
7 8 7 6 4 13 14 9 4 4 4 7 6 7 8 6 7 7 7 5 3 7 5 5 4 6 5 1 5 8 13 16 14 16 16 17 22 20 16 18 19 21 27 29 28 26 23 22 22 22 21 21 22 24 24 25 25 26 27 29 32 37 41 44 47 49 50 51 51 50 48 46 44 42 41 39 36 33 31 30 28 27 26 24 23 22
5 5 5 5 1 6 3 2 4 2 2 5 6 7 3 1 3 7 8 2 2 7 8 5 7 8 8 6 8 10 12 15 14 15 13 16 22 20 19 23 24 24 28 31 31 28 24 23 23 25 25 24 25 27 27 27 27 27 28 29 32 36 40 44 47 49 51 52 52 51 49 47 46 43 41 40 37 34 32 30 29 27 26 25 24 23
5 4 3 4 2 2 3 4 1 2 1 4 5 4 1 3 1 4 6 3 4 10 9 9 13 11 9 7 8 14 14 15 16 14 11 14 17 17 21 27 29 29 29 31 31 28 26 24 23 26 28 28 27 28 29 29 28 29 30 31 32 35 39 42 46 49 51 52 52 52 51 49 47 44 42 40 37 34 32 30 29 28 26 25 24 23
2 3 2 2 1 2 3 2 3 2 2 1 2 2 0 1 4 5 6 5 7 9 9 15 20 14 10 6 7 14 15 15 15 13 10 12 12 15 22 29 31 31 30 32 33 32 30 26 26 28 30 31 29 29 31 31 30 32 32 32 34 36 38 41 45 48 51 52 53 53 52 50 47 44 42 40 37 34 32 31 29 28 26 25 24 24
2 3 3 1 2 1 3 4 5 5 4 1 4 3 1 2 3 5 5 5 7 8 9 15 18 13 8 6 9 16 16 15 14 11 10 11 13 17 24 29 31 32 32 35 38 39 36 32 31 32 33 33 32 32 33 33 33 33 34 34 36 38 40 42 45 48 50 52 53 53 52 50 47 44 42 41 38 35 33 31 30 28 27 25 25 24
1 3 4 1 1 3 4 6 9 9 8 5 5 6 6 3 1 2 4 5 6 7 7 9 14 12 4 3 9 12 11 12 12 10 9 9 14 21 26 30 32 33 33 34 38 42 40 37 36 35 35 35 35 35 35 36 36 35 36 37 38 39 41 42 45 48 51 52 53 53 53 51 48 45 43 40 37 35 33 32 30 29 27 25 25 24
3 4 6 4 3 6 7 8 10 10 8 8 9 10 10 9 5 3 7 6 3 5 8 7 13 15 2 7 7 6 4 6 7 8 7 8 15 23 27 31 31 31 31 30 35 39 38 37 37 36 37 38 38 39 38 38 39 38 38 38 39 41 42 43 45 48 51 52 53 54 53 51 48 45 43 40 38 36 34 33 31 29 27 25 25 24
3 2 6 8 8 7 5 3 2 2 2 3 6 8 10 9 9 8 7 5 3 5 8 7 11 16 4 8 5 4 4 3 4 6 8 10 17 24 27 29 28 29 29 28 32 36 34 35 36 37 38 39 40 41 40 40 41 41 41 40 41 42 43 43 45 47 50 52 54 54 53 51 48 45 43 40 38 36 35 33 31 28 27 25 24 24
2 2 5 8 6 6 3 2 2 1 1 4 6 7 8 9 10 9 5 2 3 5 8 8 10 14 5 6 2 4 3 5 7 11 15 16 17 23 27 27 26 28 29 28 30 33 34 36 37 39 40 40 42 43 42 41 42 43 44 43 43 43 44 44 46 48 50 52 54 54 53 51 48 46 43 41 38 36 35 33 31 28 27 25 24 25
4 3 6 7 6 7 6 4 3 2 4 6 8 9 10 11 10 6 2 1 4 12 17 11 8 13 9 1 2 8 7 7 9 16 22 19 16 22 26 27 26 27 28 28 28 31 36 40 40 40 41 41 43 45 44 44 44 45 46 45 44 44 45 46 47 48 50 53 54 54 53 51 48 46 43 41 38 37 35 33 30 28 27 25 24 26
4 3 5 8 9 9 10 11 6 2 4 6 8 12 13 13 13 9 5 5 9 17 20 13 10 14 16 13 15 16 13 11 13 19 20 17 19 22 24 27 28 27 28 29 29 31 37 42 42 40 40 41 43 45 45 45 45 46 47 47 46 45 46 47 48 49 51 53 54 54 53 51 48 46 43 41 39 37 35 33 30 28 26 25 25 26
2 3 9 12 13 11 13 16 11 4 5 6 9 14 14 14 17 13 8 9 13 16 14 14 17 19 19 22 23 22 21 20 20 22 17 14 20 24 24 27 29 30 30 30 31 33 37 42 43 41 39 40 43 45 46 47 47 47 47 48 47 47 47 48 48 50 52 53 54 54 53 51 48 46 43 41 39 37 35 33 30 28 26 25 25 26
1 5 13 17 20 19 20 24 22 19 15 11 11 14 14 16 17 15 15 19 19 12 10 15 22 21 18 20 24 26 26 24 21 22 19 15 19 24 28 30 30 30 31 32 33 35 37 40 42 42 41 42 43 46 48 49 49 48 48 48 48 48 49 49 49 50 52 53 53 53 52 50 48 45 43 41 39 38 35 32 30 27 25 25 26 25
2 7 13 16 20 22 22 24 25 24 21 18 18 17 17 17 18 19 23 23 17 13 14 20 25 23 17 17 23 26 26 25 24 27 29 26 22 23 25 27 29 30 31 32 34 35 36 39 42 45 45 45 45 47 49 51 51 49 49 49 49 49 49 49 50 50 52 53 53 53 52 50 48 45 43 41 40 38 35 32 29 27 26 26 26 24
3 6 11 14 17 18 18 21 24 26 24 22 24 22 17 14 18 24 23 15 15 21 22 24 27 25 19 19 24 29 31 31 32 35 36 34 30 26 20 19 24 29 31 35 37 37 39 42 45 47 47 47 49 50 51 52 52 51 50 49 49 50 50 49 50 50 51 53 53 53 51 49 47 45 43 42 40 37 34 31 29 27 26 27 25 23
5 8 10 11 11 14 19 23 24 25 26 25 25 22 18 18 22 25 18 9 14 24 25 25 26 21 19 23 27 31 34 33 31 33 33 32 32 30 23 21 27 33 36 39 38 38 42 45 46 47 48 49 50 51 52 53 52 51 50 50 50 50 50 49 49 51 52 52 52 52 51 49 47 45 43 42 39 36 34 31 28 27 27 26 24 23
6 7 7 7 10 12 18 22 22 22 24 24 22 20 22 25 26 24 17 14 18 22 23 23 19 15 18 23 25 26 28 27 28 29 27 28 34 34 27 25 30 37 40 39 36 36 39 41 44 46 47 48 48 49 51 51 51 51 51 50 51 50 49 49 49 50 51 52 52 51 50 48 47 45 43 42 39 36 33 30 28 27 27 25 23 22
6 6 5 7 10 11 16 21 20 17 16 14 17 24 28 28 26 24 23 24 24 20 17 15 13 14 18 19 20 23 25 27 28 24 19 24 33 35 28 25 31 38 41 39 36 37 38 38 40 42 43 43 44 45 47 48 49 50 50 50 50 49 48 48 49 50 51 51 51 50 49 48 46 45 43 41 38 35 32 29 28 27 27 25 23 22
9 10 8 7 6 9 15 17 14 11 11 11 15 22 24 24 25 26 26 28 27 22 19 17 16 18 19 17 19 21 25 31 30 23 22 29 35 33 29 31 36 40 40 40 39 40 40 38 38 38 38 39 40 41 43 44 46 47 47 48 48 47 47 48 48 49 50 50 50 49 49 48 46 45 43 41 37 34 31 29 28 27 26 24 23 21
10 10 8 7 5 7 9 10 10 10 11 12 13 13 16 22 27 28 28 29 28 26 26 25 25 25 24 23 23 25 31 39 34 27 31 40 40 34 30 35 42 42 41 41 41 40 39 36 35 36 36 35 34 35 37 40 42 44 45 46 46 46 47 47 47 48 50 50 50 49 49 48 46 45 43 39 37 33 31 29 28 27 25 23 22 20
13 10 7 6 7 6 5 8 10 7 2 4 8 10 14 18 20 22 24 26 28 29 27 26 27 27 26 25 28 35 43 41 30 28 37 46 46 40 35 36 42 44 43 43 42 41 39 35 33 33 33 30 29 29 31 34 37 40 42 44 45 45 46 46 46 48 49 50 50 49 49 48 46 45 42 39 36 32 30 29 28 26 25 23 21 19
17 12 7 7 9 8 8 10 12 9 3 5 8 12 15 15 15 18 20 20 23 23 23 23 25 26 28 27 31 41 43 29 16 22 39 50 50 47 42 40 42 45 46 45 43 41 38 35 32 31 29 28 27 27 27 29 32 35 39 41 43 44 44 44 46 48 49 49 50 50 49 48 46 43 40 38 35 32 30 29 27 26 23 22 20 18
19 15 12 11 9 9 11 9 8 10 9 10 13 16 18 18 20 22 21 14 11 13 17 21 23 26 28 27 28 32 28 15 7 15 35 51 53 45 39 38 38 40 42 43 41 37 34 32 31 29 27 26 25 25 25 26 28 31 35 38 40 41 43 44 46 47 48 49 49 49 48 47 44 42 39 36 33 30 29 28 26 24 22 21 19 18
23 18 15 12 8 9 12 9 8 11 9 10 16 17 18 21 21 20 20 10 6 10 18 22 24 26 25 24 25 21 14 8 7 13 34 53 52 39 31 31 33 36 37 37 35 32 31 30 28 26 25 24 24 24 25 25 26 28 31 34 37 39 42 44 45 46 47 48 49 48 47 45 42 40 37 34 31 30 28 27 25 22 21 20 18 17
20 13 12 12 10 12 14 9 6 7 5 9 15 17 21 26 23 17 14 5 8 16 25 24 24 26 24 22 20 15 9 10 12 21 41 51 41 32 31 31 32 32 31 31 30 28 28 29 28 27 26 26 25 25 25 25 26 28 29 31 35 38 42 43 44 45 46 47 47 47 45 43 41 38 35 32 30 29 27 25 23 21 20 19 17 17
12 9 10 13 12 14 16 11 6 6 6 9 14 17 22 24 18 14 13 9 11 20 27 26 24 27 28 23 16 12 16 24 29 35 45 46 36 34 37 35 32 30 28 30 30 28 28 28 28 28 27 26 26 26 26 27 28 29 29 31 34 37 40 42 43 45 46 47 47 46 45 43 40 37 34 31 30 28 26 24 21 20 19 18 16 17
7 6 8 10 10 11 11 9 8 7 7 12 16 21 22 16 9 10 17 21 22 23 27 30 29 29 31 27 22 24 30 38 41 40 40 41 39 38 38 34 33 33 33 34 35 33 30 29 30 30 29 28 28 28 28 29 30 30 31 33 35 37 39 42 44 45 46 47 47 47 45 43 40 36 34 32 30 28 26 23 21 21 19 17 16 16
7 6 7 8 8 9 9 8 8 6 8 18 21 18 15 12 11 14 18 23 27 28 28 29 29 31 33 31 31 35 36 37 40 38 36 37 36 35 34 33 33 36 36 37 37 36 33 31 31 32 31 31 31 30 30 31 32 33 34 35 36 37 40 42 44 45 46 48 48 47 45 42 39 37 35 33 31 28 26 23 22 21 18 16 16 15
8 7 6 4 5 8 8 6 5 5 4 17 20 13 11 15 20 22 20 18 23 27 25 23 24 29 30 28 29 32 33 34 36 35 34 33 31 32 32 31 32 37 38 38 38 36 34 33 32 33 35 35 33 32 33 35 36 36 38 38 38 40 42 43 44 46 47 49 49 47 45 42 39 37 35 33 30 27 25 23 22 20 17 16 16 14
3 3 5 5 4 5 6 4 4 9 10 8 10 10 12 18 23 24 23 21 21 23 23 22 23 26 28 28 29 29 29 29 30 30 29 28 27 28 30 30 34 38 39 38 37 35 35 35 34 36 37 36 34 33 36 38 39 40 40 40 41 41 42 44 46 47 49 50 50 48 45 43 40 38 35 32 29 27 25 23 22 19 17 15 15 13
9 10 7 6 6 7 8 6 4 6 11 16 20 23 26 29 30 27 24 22 24 28 31 30 30 31 33 34 33 31 31 33 35 34 32 31 30 30 30 31 34 36 37 37 37 36 35 36 36 37 36 35 34 35 37 39 41 42 42 42 42 42 43 45 47 49 51 52 51 49 46 43 41 37 34 31 28 26 25 23 21 18 16 14 13 12
8 9 7 6 7 7 5 5 9 12 16 21 27 30 29 26 22 21 21 21 24 29 33 33 34 35 36 36 34 33 35 38 38 37 37 35 34 33 33 34 36 37 38 38 37 37 37 36 37 37 37 36 36 36 38 40 42 42 42 43 43 43 44 45 48 50 53 53 52 49 46 43 40 36 33 31 28 27 25 23 20 17 15 14 12 11
8 12 11 8 10 10 9 12 18 23 28 31 30 25 21 20 19 21 23 25 28 31 34 36 37 38 38 38 36 36 38 41 41 40 41 41 40 39 40 40 40 40 40 38 38 37 37 37 38 39 39 39 39 38 39 41 42 43 44 45 45 44 44 46 49 52 54 54 52 49 45 42 39 35 32 30 28 26 24 21 18 15 14 13 12 11
15 17 14 13 14 15 16 18 18 19 23 28 25 17 15 20 25 28 31 32 34 35 36 37 38 37 36 37 38 38 38 41 43 43 42 43 43 42 42 40 39 40 40 40 40 39 38 39 40 41 42 42 41 41 40 41 44 46 47 48 47 45 46 48 51 53 54 53 51 48 44 41 37 34 31 29 27 25 23 20 17 15 13 12 11 10
13 13 13 13 12 13 13 14 15 14 12 14 19 21 22 26 30 32 35 37 38 39 39 39 41 41 42 42 43 42 41 42 44 44 42 40 40 41 42 41 39 40 42 41 41 40 40 40 40 41 43 43 43 42 41 42 46 48 49 50 48 46 47 51 54 55 55 53 50 47 43 39 36 33 31 29 27 25 22 19 17 15 14 13 11 9
11 12 12 11 11 14 16 18 18 16 12 17 28 36 38 38 38 36 36 38 41 43 43 42 42 44 47 47 45 42 40 41 43 41 39 39 40 41 43 43 41 41 42 42 41 41 40 39 39 41 42 43 44 44 43 45 48 50 51 51 49 48 50 53 57 58 56 52 49 45 41 37 35 32 31 29 27 25 22 20 18 16 14 13 10 7
Wind_Direction
191 221 234 239 242 242 239 232 235 251 268 283 285 279 275 275 271 272 273 146 183 236 245 247 253 260 264 264 264 269 271 271 270 265 260 261 263 258 254 249 239 241 252 256 256 256 252 247 243 241 241 240 239 239 239 238 237 236 236 235 233 232 233 232 233 232 231 231 232 234 236 237 238 239 240 241 241 242 244 246 248 252 257 264 269 274
188 224 236 241 251 259 267 264 255 259 269 272 269 272 273 267 267 273 265 140 167 229 260 263 265 265 264 265 265 266 266 264 263 263 263 265 268 265 258 253 242 237 249 256 253 250 248 245 242 239 239 239 240 240 239 239 237 236 235 234 233 233 232 232 233 232 231 232 233 235 236 237 238 239 239 240 241 242 243 245 247 251 257 262 267 272
209 233 244 248 255 264 273 275 266 263 264 265 260 261 265 262 271 273 181 135 168 217 270 279 277 273 270 266 262 258 257 255 251 255 264 269 271 268 263 258 241 228 242 252 248 245 244 244 242 238 238 239 240 241 240 238 237 235 234 234 233 233 232 232 233 232 231 232 233 234 235 236 238 238 239 241 242 242 242 243 246 251 256 261 266 270
221 236 248 251 236 237 255 240 241 257 251 246 243 247 256 255 267 269 182 146 201 219 273 293 284 274 269 258 250 247 247 251 252 252 260 263 264 264 264 263 231 218 239 251 243 239 241 241 239 237 237 238 238 238 237 236 236 235 234 234 233 232 232 232 232 232 231 232 233 234 235 237 238 239 239 240 240 240 240 243 246 250 255 260 264 269
239 241 183 162 188 227 252 231 216 242 244 232 228 234 250 252 257 264 299 341 255 234 253 296 284 268 258 246 239 237 235 245 252 252 255 255 257 262 266 260 223 219 240 248 240 236 239 241 240 238 237 237 237 237 237 237 237 236 235 234 234 233 233 232 232 232 231 232 233 233 234 235 236 238 238 238 239 239 241 243 246 250 254 259 264 270
247 236 134 187 217 205 236 244 225 227 250 243 226 230 244 257 265 268 309 353 296 264 168 329 298 272 231 234 233 197 187 217 233 239 246 249 251 257 264 253 224 229 243 241 238 238 241 242 240 237 236 236 237 238 239 239 238 237 236 235 235 234 234 233 232 233 233 233 233 232 233 233 234 236 237 238 239 240 241 243 245 249 253 257 263 269
245 198 138 227 233 210 231 252 238 219 243 253 235 243 248 257 265 268 287 306 281 281 199 68 308 285 229 217 229 204 192 193 192 229 247 248 244 243 251 250 231 236 242 231 232 237 238 237 235 234 235 237 240 241 241 240 239 238 237 237 235 235 235 234 234 234 234 233 232 232 233 234 235 237 238 238 239 240 242 243 244 248 251 256 263 269
202 183 176 217 222 228 231 249 238 211 227 250 15 352 260 253 261 259 269 256 260 291 279 177 246 278 272 220 217 221 222 210 208 241 252 253 248 235 239 247 242 245 248 234 228 231 232 230 231 234 236 239 240 240 240 240 240 238 238 238 237 237 236 236 236 235 234 233 232 232 232 233 234 236 237 238 238 239 242 243 245 247 251 257 263 268
159 187 192 190 198 226 223 257 218 195 218 251 63 37 67 328 266 238 249 256 272 292 273 202 185 264 281 209 193 209 215 218 223 238 249 251 251 242 234 241 245 247 247 236 224 220 220 221 227 233 234 234 233 236 240 241 241 239 239 239 238 238 237 237 237 236 234 233 233 233 233 233 234 235 236 238 239 240 240 242 245 248 253 257 262 267
63 148 200 187 199 225 196 48 21 203 216 152 117 87 79 88 99 168 243 268 282 274 258 212 170 235 283 201 167 193 202 210 220 232 242 244 246 246 234 234 242 241 232 220 209 207 210 216 222 225 225 226 230 239 243 241 240 239 238 238 238 238 237 237 237 235 234 233 233 233 233 234 234 235 236 238 239 239 240 241 244 248 253 257 262 266
114 90 28 215 215 212 107 75 22 10 128 134 143 123 115 185 170 202 238 259 279 264 244 204 181 207 273 188 147 178 193 197 203 219 237 244 243 235 224 229 236 231 214 198 194 199 205 213 215 216 219 220 231 243 243 240 237 236 236 237 237 237 236 236 236 235 234 234 234 234 234 234 234 235 236 237 239 239 240 240 242 246 250 256 261 265
200 174 202 212 183 124 107 102 53 49 135 161 172 188 216 228 197 212 216 165 250 262 221 184 187 199 236 217 152 185 193 189 186 209 247 261 251 233 224 230 230 216 201 191 192 198 202 208 211 211 214 216 231 244 243 239 236 234 235 235 235 235 235 235 236 235 233 233 234 234 234 233 233 235 236 237 239 239 239 239 241 245 249 254 258 262
214 209 192 153 149 176 174 148 106 109 185 201 192 193 231 245 227 230 218 188 235 254 136 156 190 208 234 246 229 224 199 189 189 217 259 265 255 247 235 232 228 209 198 193 195 201 204 208 210 210 212 215 231 244 243 240 237 236 235 234 234 234 234 235 235 234 233 233 234 233 233 233 233 234 236 237 238 239 239 239 241 245 248 253 256 260
225 231 174 167 193 189 189 194 202 189 183 194 190 185 207 232 246 247 238 236 247 249 138 129 182 236 260 252 227 229 214 201 209 228 244 246 246 250 233 224 228 212 201 200 201 205 209 211 213 215 217 220 232 241 240 239 238 237 236 235 235 234 234 234 234 234 233 233 234 234 233 233 233 233 235 236 238 239 240 240 242 245 248 252 256 260
244 275 177 173 168 170 187 211 213 136 173 196 195 196 215 227 239 247 251 253 268 289 215 146 178 236 272 132 199 220 215 204 218 231 232 236 239 243 230 223 230 217 206 205 206 210 214 217 218 220 223 225 232 239 239 238 237 237 238 237 236 235 234 234 234 234 234 233 234 234 233 233 232 233 234 236 238 239 240 241 243 245 248 252 255 259
242 265 168 137 112 158 184 217 179 116 186 196 184 209 232 239 229 247 275 273 315 316 271 190 222 246 257 243 160 199 202 189 210 227 223 229 233 235 232 231 234 224 214 210 211 214 217 220 222 225 228 229 232 238 238 238 239 239 240 239 238 236 234 235 235 235 234 234 234 234 233 232 233 233 234 235 237 238 239 241 243 245 248 251 255 259
231 267 131 112 66 155 169 273 175 184 228 165 177 208 225 317 241 247 272 297 94 282 267 219 243 258 265 250 169 165 181 181 204 221 216 224 228 227 230 234 237 232 223 218 216 218 221 225 228 230 231 232 235 238 239 241 242 242 241 240 238 235 234 235 236 236 235 234 234 234 233 232 233 233 234 235 236 238 239 240 241 244 248 251 255 259
230 263 171 167 228 142 26 343 266 299 317 142 185 217 90 37 312 249 262 268 243 263 270 260 261 263 267 260 168 165 182 191 208 217 215 224 224 222 229 235 239 238 231 226 221 222 227 232 236 237 235 235 238 242 243 244 245 243 241 240 238 236 235 236 236 236 236 235 234 234 233 232 233 233 234 235 236 237 239 239 240 243 247 251 255 258
208 253 241 176 290 104 91 277 222 216 233 186 282 296 40 215 210 205 227 247 251 259 269 272 274 267 252 250 175 175 191 202 210 213 213 219 216 219 229 235 241 241 237 234 230 228 231 236 242 245 241 238 240 244 245 246 245 244 242 240 238 237 237 237 237 236 236 235 235 235 233 233 233 233 234 235 235 237 238 238 239 241 245 250 254 258
195 230 248 47 344 112 140 220 207 177 175 235 302 276 220 248 234 211 212 228 240 250 265 278 282 272 244 228 178 174 190 205 205 203 207 214 215 217 226 233 239 241 239 240 240 236 235 240 248 252 249 243 240 244 246 246 245 245 243 240 238 237 236 237 237 237 237 236 235 234 233 232 232 232 234 234 235 237 238 237 237 240 244 249 254 259
141 227 239 89 345 237 203 199 194 191 182 183 226 221 198 199 267 289 250 234 236 246 256 268 274 274 263 163 164 162 185 201 194 200 204 207 218 220 226 233 238 241 242 243 245 243 240 243 248 251 251 246 242 243 246 247 246 246 244 242 239 237 236 236 237 237 236 236 235 234 233 232 231 232 233 234 234 236 237 236 236 239 243 248 253 260
180 212 225 208 211 226 219 197 196 205 194 186 199 201 199 191 182 231 236 222 214 241 245 247 265 272 254 120 133 123 153 191 191 211 209 202 217 221 228 235 238 242 244 247 250 249 247 246 245 248 248 245 241 241 244 246 247 246 245 244 241 238 238 238 237 237 236 235 235 233 232 231 231 231 232 232 233 235 235 234 235 239 242 247 254 261
185 164 225 232 230 234 230 180 199 256 241 251 232 208 207 194 186 210 221 208 186 222 245 245 258 267 247 110 99 84 116 191 215 228 241 243 231 227 232 236 238 241 243 247 253 253 250 243 242 246 247 245 242 241 244 247 248 248 246 245 242 240 240 239 238 237 236 235 234 233 231 230 230 230 231 231 232 234 233 233 235 238 242 248 255 262
108 93 227 244 260 269 269 87 48 8 197 256 255 225 220 214 210 221 224 218 184 195 230 235 242 260 264 97 69 293 256 241 235 233 249 257 239 227 232 234 236 241 242 245 251 253 248 241 241 244 245 245 243 242 244 249 250 249 247 245 244 242 240 239 238 236 235 234 233 232 230 229 229 230 230 230 231 232 231 232 235 238 242 248 256 263
178 191 216 235 259 263 258 242 225 203 198 224 234 221 222 223 221 232 245 236 233 228 236 243 245 255 259 133 255 271 256 229 229 238 247 253 241 227 229 233 235 238 242 244 247 249 245 240 240 242 242 244 245 243 245 249 250 251 249 246 245 243 240 239 238 236 234 233 231 230 229 228 228 229 229 228 229 229 229 231 234 238 243 249 257 264
206 215 199 220 238 230 233 241 233 161 179 215 233 224 219 214 210 221 230 217 235 239 239 244 250 257 270 282 283 281 272 257 257 258 252 248 246 237 228 231 234 235 240 244 246 249 247 243 241 241 243 248 250 248 247 249 251 252 250 247 245 243 240 239 238 236 233 232 230 229 228 227 227 227 227 227 227 227 228 230 234 238 243 251 258 264
195 227 214 228 242 237 242 253 263 270 206 192 216 220 214 212 210 216 228 226 234 241 239 242 250 258 269 275 279 281 276 271 270 272 265 240 236 238 230 230 234 235 239 244 247 251 250 244 240 240 245 251 253 252 251 252 253 253 250 247 244 242 241 240 238 235 233 231 229 228 227 226 226 226 226 225 225 226 227 229 234 238 244 252 258 264
156 233 229 237 243 243 250 256 261 265 254 235 234 225 214 214 212 211 223 229 234 243 247 244 249 254 257 262 270 274 273 273 271 272 275 256 236 237 236 235 236 238 241 245 248 250 250 246 242 242 247 252 254 254 254 253 254 253 251 248 244 242 241 240 238 234 231 230 228 226 225 225 225 225 224 224 223 224 226 229 233 239 245 252 258 264
200 241 235 243 247 245 251 256 258 263 262 258 257 248 227 214 207 212 225 230 230 239 249 248 249 254 255 257 263 266 268 271 271 273 277 273 260 251 242 236 238 242 245 248 250 249 249 248 245 246 249 252 254 255 255 254 254 253 252 248 244 242 241 240 237 233 231 229 227 225 224 223 223 223 222 222 222 223 226 229 233 239 246 252 258 265
186 238 235 243 253 253 255 258 258 260 263 262 258 254 243 225 216 223 229 226 225 237 245 249 252 258 261 259 260 263 265 269 275 277 276 275 274 271 256 241 246 254 257 258 258 255 251 250 249 251 253 254 255 256 256 256 255 254 252 248 245 243 241 239 236 233 230 228 226 224 223 222 221 221 220 220 221 222 225 229 234 240 246 253 259 265
197 225 228 238 256 253 248 251 252 252 256 257 256 257 261 261 250 243 238 215 223 239 243 244 250 257 259 259 259 261 265 269 274 274 272 276 279 278 271 263 264 267 266 265 263 261 258 255 253 254 255 256 258 259 258 257 256 254 252 249 246 244 241 238 235 233 230 227 225 223 221 220 220 219 219 219 220 222 225 229 234 241 247 253 259 264
204 227 225 230 246 242 237 241 243 245 251 255 259 261 257 255 255 253 247 229 229 240 246 246 250 250 251 256 260 263 266 267 266 265 270 278 279 276 273 268 265 266 267 267 266 265 263 260 257 257 257 260 261 260 260 259 256 254 252 250 247 244 240 238 235 232 229 225 223 221 220 219 219 218 217 218 219 221 225 230 235 242 248 253 259 263
195 220 215 215 237 242 236 239 241 244 249 248 243 243 241 242 248 252 252 247 241 240 244 245 241 239 245 253 258 262 263 261 259 261 269 273 272 273 274 268 263 264 267 270 270 269 268 266 264 262 261 263 265 264 264 262 259 256 254 250 247 243 240 237 234 230 227 224 222 221 219 219 218 217 217 217 219 222 225 231 237 242 249 253 257 261
199 214 222 217 232 243 237 240 244 237 234 230 226 230 234 239 244 246 247 248 247 244 247 251 253 255 256 253 252 255 256 258 262 270 272 269 269 273 275 271 267 268 270 273 273 272 272 272 270 268 267 268 267 266 264 261 258 256 252 249 246 243 240 237 233 229 226 223 221 220 219 219 217 216 216 216 219 222 225 231 238 243 248 252 255 259
211 214 224 223 232 246 237 237 243 231 225 234 232 226 229 235 240 243 246 248 249 250 251 254 257 257 256 255 257 258 258 262 269 278 276 272 271 271 270 269 270 271 273 273 274 274 274 272 271 271 271 269 266 262 259 256 255 253 250 248 246 243 241 237 232 229 225 223 221 219 218 217 215 215 216 216 218 222 226 232 238 243 248 251 254 258
220 219 220 221 228 240 223 214 229 238 206 207 217 217 227 235 239 247 253 249 245 247 248 250 253 255 256 258 257 258 261 267 276 278 273 272 272 269 264 263 267 271 272 273 275 277 277 274 272 271 270 269 266 261 257 255 253 251 249 247 245 242 239 236 231 228 225 222 220 218 217 216 215 214 214 216 219 223 227 234 239 243 246 250 253 258
218 220 217 222 221 222 230 224 230 251 250 162 184 204 216 222 220 231 246 243 232 235 243 248 253 255 255 256 255 258 264 271 279 273 269 269 269 267 264 263 265 269 272 275 276 277 277 276 272 269 269 269 268 263 258 254 251 248 247 244 242 239 236 233 230 227 224 221 219 217 216 214 213 213 214 216 220 224 229 235 240 243 246 249 253 258
214 216 214 224 218 210 233 238 226 241 236 201 202 208 211 218 220 229 246 245 210 215 236 243 247 248 250 253 257 261 264 263 255 262 265 267 267 267 266 266 266 268 271 275 276 275 275 274 270 268 267 264 264 263 259 254 248 245 244 241 240 238 235 232 229 226 223 220 218 216 215 213 212 212 214 217 221 226 232 237 239 242 245 248 253 259
218 219 217 228 227 211 230 239 223 235 235 206 211 214 215 224 228 236 250 246 166 204 233 239 244 246 249 253 255 258 259 248 239 252 260 264 269 272 271 269 268 269 271 273 274 273 272 271 266 262 258 254 257 260 259 254 246 241 240 239 238 237 234 231 228 225 222 219 216 214 212 211 210 212 215 219 223 228 233 237 238 240 244 248 253 259
218 219 219 228 230 221 232 243 229 238 231 193 206 214 220 226 229 237 251 228 171 215 230 235 243 248 251 255 255 255 251 241 243 252 258 263 269 275 277 275 271 268 269 271 272 271 269 264 257 252 252 253 258 261 258 251 241 236 236 235 234 234 233 231 227 223 219 216 214 212 210 209 209 212 215 220 225 230 233 236 237 239 243 248 253 260
215 211 215 223 224 220 227 235 238 235 210 193 207 217 222 228 229 234 243 231 211 225 232 235 243 249 252 256 258 254 250 250 252 257 262 266 270 273 276 276 273 268 267 269 272 271 266 258 251 250 254 256 257 258 255 245 237 234 233 231 231 232 231 228 223 219 216 213 211 209 207 207 209 212 216 221 226 230 233 233 236 239 242 248 254 261
212 208 215 221 227 229 228 235 252 244 190 192 220 227 223 227 233 231 236 239 238 240 242 244 250 255 256 257 258 257 258 260 260 262 264 266 268 269 271 272 271 269 269 270 271 269 263 257 250 249 252 253 253 254 252 244 237 235 233 230 230 230 226 222 219 216 213 210 208 207 206 206 209 212 217 222 226 229 230 230 233 237 241 246 253 262
193 205 222 208 206 228 232 225 245 252 179 191 219 231 219 216 232 237 239 242 243 248 252 252 256 260 259 259 259 258 259 262 264 265 266 265 267 269 269 267 267 269 270 272 272 268 262 256 252 251 252 253 252 252 251 245 238 234 231 230 229 225 220 219 216 213 210 207 205 205 204 206 209 212 217 222 224 225 226 228 230 234 237 244 253 262
199 210 239 226 196 222 230 215 244 301 220 202 215 227 226 235 249 256 264 265 257 260 267 269 269 271 272 274 276 273 270 268 268 269 269 267 268 270 269 269 270 271 273 273 272 268 262 256 253 254 255 253 251 253 253 247 239 233 230 228 225 220 217 216 213 209 206 204 202 202 203 205 209 213 216 219 221 222 223 225 227 231 235 242 251 260
264 292 295 286 266 254 267 279 306 335 333 288 267 285 304 313 315 315 318 318 306 305 315 319 317 317 319 322 323 317 308 301 298 295 292 287 284 281 280 281 279 276 274 273 271 267 261 256 253 253 252 250 250 253 253 247 239 233 230 226 222 219 216 213 209 206 203 200 199 200 202 205 209 212 214 216 218 220 221 223 226 229 233 240 249 259
304 308 295 278 289 293 286 287 314 350 341 325 317 319 321 321 323 326 330 329 324 326 328 326 324 327 326 327 329 326 321 318 316 313 310 307 303 299 296 292 287 282 277 275 274 272 265 257 252 250 248 248 250 253 251 245 238 234 230 225 220 218 216 211 207 203 200 199 198 199 202 205 207 210 212 214 216 217 219 221 223 225 231 240 248 256
291 303 306 298 300 297 287 328 347 334 319 313 311 310 311 310 312 320 324 323 322 322 321 318 318 318 317 317 319 316 312 311 309 305 304 303 301 299 298 295 292 288 284 281 280 276 268 259 252 250 250 251 254 255 251 243 236 231 229 226 221 217 214 210 206 202 198 197 197 198 201 204 206 208 210 211 213 214 216 219 221 223 230 239 245 252
306 326 333 313 299 295 289 302 308 300 295 295 294 296 307 318 326 327 323 320 319 317 314 312 312 310 309 309 308 306 304 302 299 296 295 295 294 292 291 290 289 286 285 284 281 275 269 263 259 256 256 257 259 258 251 241 232 227 225 224 221 217 212 208 204 201 198 196 197 198 200 202 205 207 208 209 211 213 215 217 218 221 230 237 243 251
290 301 300 291 292 291 286 289 294 291 288 288 288 293 314 322 321 320 316 314 312 309 307 306 304 303 302 302 301 300 297 294 293 291 290 290 291 290 288 288 286 283 281 281 280 277 274 270 267 264 262 262 261 258 250 239 230 225 223 221 219 216 211 205 201 199 197 196 196 198 199 201 202 204 205 207 208 209 211 213 214 219 227 233 239 248
271 273 275 278 280 276 277 289 301 300 295 297 306 313 313 308 308 309 306 305 304 302 301 300 298 297 295 293 293 292 290 289 288 288 286 286 287 287 288 287 284 280 279 279 278 276 273 271 269 266 264 263 260 256 248 237 229 225 222 219 217 214 210 204 199 197 196 196 196 197 197 198 199 201 203 204 205 205 206 207 210 216 221 227 235 246
269 274 280 282 280 280 288 301 308 307 299 299 304 304 303 304 305 303 300 299 298 296 296 295 294 293 292 289 288 286 284 284 284 284 284 284 284 285 286 285 283 281 281 280 277 274 273 272 269 266 264 262 259 253 245 236 229 225 222 218 214 211 209 204 198 195 195 195 195 196 197 198 199 200 201 201 202 203 203 204 207 211 216 222 229 237